Weather History for Bryce Canyon, UT

Change the Weather History Date:

Wednesday, November 21, 2012

  Actual Average Record
Temperature  
Mean Temperature 36 °F -  
Max Temperature 53 °F 40 °F 57 °F (1989)
Min Temperature 19 °F 13 °F -4 °F (2010)
Degree Days  
Heating Degree Days 29    
Moisture  
Dew Point 19 °F    
Average Humidity 63    
Maximum Humidity 92    
Minimum Humidity 25    
Precipitation  
Precipitation 0.00 in - - ()
Sea Level Pressure  
Sea Level Pressure 30.11 in    
Wind  
Wind Speed 6 mph (SSW)    
Max Wind Speed 15 mph    
Max Gust Speed -    
Visibility 10 miles    
Events      
Averages and records for this station are not official NWS values.
T = Trace of Precipitation, MM = Missing Value Source: NWS Daily Summary

Daily Weather History Graph

Daily Weather History Graph

Search for Another Location

Airport:

Trip Planner

Search our weather history database for the weather conditions in past years. The results will help you decide how hot, cold, wet, or windy it might be!

Date:

Astronomy

Nov. 21, 2012 Rise Set
Actual Time 7:15 AM MST 5:13 PM MST
Civil Twilight 6:47 AM MST 5:41 PM MST
Nautical Twilight 6:15 AM MST 6:13 PM MST
Astronomical Twilight 5:43 AM MST 6:45 PM MST
Moon 1:25 PM MST (11/21) 12:45 AM MST (11/21)
Length of Visible Light 10h 54m
Length of Day
9h 57m
Waxing Gibbous, 62% of the Moon is Illuminated
Nov 21
Waxing Gibbous
Nov 28
Full
Dec 6
Last Quarter
Dec 13
New
Dec 19
First Quarter

Hourly Weather History & Observations

Time (MST) Temp. Windchill Dew Point Humidity Pressure Visibility Wind Dir Wind Speed Gust Speed Precip Events Conditions
12:53 AM 21.9 °F 14.5 °F 19.0 °F 89% 30.14 in 10.0 mi West 5.8 mph - N/A   Clear
1:53 AM 19.9 °F 13.4 °F 18.0 °F 92% 30.14 in 10.0 mi SSW 4.6 mph - N/A   Clear
2:53 AM 19.9 °F 13.4 °F 18.0 °F 92% 30.14 in 10.0 mi SW 4.6 mph - N/A   Clear
3:53 AM 19.0 °F 13.9 °F 17.1 °F 92% 30.13 in 10.0 mi SW 3.5 mph - N/A   Clear
4:53 AM 19.0 °F 12.3 °F 17.1 °F 92% 30.14 in 10.0 mi SSW 4.6 mph - N/A   Clear
5:53 AM 19.9 °F 13.4 °F 17.1 °F 89% 30.18 in 10.0 mi SW 4.6 mph - N/A   Clear
6:53 AM 19.0 °F 12.3 °F 16.0 °F 88% 30.22 in 10.0 mi SW 4.6 mph - N/A   Clear
7:53 AM 21.0 °F 14.6 °F 19.0 °F 92% 30.24 in 10.0 mi SW 4.6 mph - N/A   Clear
9:53 AM 45.0 °F 40.1 °F 23.0 °F 42% 30.12 in 10.0 mi SE 9.2 mph - N/A   Clear
10:53 AM 46.0 °F 40.6 °F 21.9 °F 39% 30.11 in 10.0 mi ESE 11.5 mph - N/A   Clear
11:53 AM 46.9 °F - 21.9 °F 37% 30.10 in 10.0 mi SE 11.5 mph - N/A   Clear
12:53 PM 48.9 °F - 23.0 °F 36% 30.06 in 10.0 mi SE 12.7 mph - N/A   Clear
1:53 PM 52.0 °F - 21.9 °F 31% 30.04 in 10.0 mi SE 12.7 mph - N/A   Clear
2:53 PM 53.1 °F - 19.9 °F 27% 30.02 in 10.0 mi South 15.0 mph - N/A   Clear
3:53 PM 53.1 °F - 18.0 °F 25% 30.03 in 10.0 mi SW 10.4 mph - N/A   Clear
4:53 PM 46.9 °F - 19.0 °F 33% 30.06 in 10.0 mi SW 5.8 mph - N/A   Clear
5:53 PM 39.0 °F 35.7 °F 19.0 °F 45% 30.09 in 10.0 mi SSW 4.6 mph - N/A   Clear
6:53 PM 39.0 °F - 18.0 °F 43% 30.12 in 10.0 mi Calm Calm - N/A   Clear
7:53 PM 34.0 °F 31.0 °F 19.0 °F 54% 30.14 in 10.0 mi South 3.5 mph - N/A   Clear
8:53 PM 34.0 °F 28.8 °F 19.9 °F 56% 30.09 in 10.0 mi West 5.8 mph - N/A   Clear
9:53 PM 24.1 °F - 19.0 °F 81% 30.08 in 10.0 mi Calm Calm - N/A   Clear
10:53 PM 21.0 °F - 18.0 °F 88% 30.10 in 10.0 mi Calm Calm - N/A   Clear
11:53 PM 19.9 °F 14.9 °F 17.1 °F 89% 30.10 in 10.0 mi WSW 3.5 mph - N/A   Clear